Regional Weather Roundup
Issued by NWS

Home | Current Version | Previous Version | Graphics & Text | Print | Product List | Glossary Off
Versions: 1 2 3 4 5 6 7 8 9 10 11 12 13 14 15 16 17 18 19 20 21 22 23 24 25 26 27 28 29 30 31 32 33 34 35 36 37 38 39 40 41 42 43 44 45 46 47 48 49 50

000
ASUS44 KMEG 190800
RWRTN
TENNESSEE HOURLY STATE WEATHER ROUNDUP
NATIONAL WEATHER SERVICE MEMPHIS TN
200 AM CST FRI DEC 19 2014

TNZ002-004-019-021-049-052-054-088>092-190900-
WEST TENNESSEE

CITY           SKY/WX    TMP DP  RH WIND       PRES   REMARKS
MEMPHIS INTL   CLOUDY    44  37  76 NE8       30.21F
NWS MEMPHIS      N/A     42 N/A N/A MISG        N/A
JACKSON        CLOUDY    39  34  82 CALM      30.23S
DYERSBURG      CLOUDY    37  25  60 NE7       30.26R WCI  32
UNION CITY     CLOUDY    34  32  93 NE6       30.24S WCI  29
$$

TNZ008-025-027-028-033-062-065-066-190900-
NORTH MIDDLE TENNESSEE

CITY           SKY/WX    TMP DP  RH WIND       PRES   REMARKS
NASHVILLE      CLOUDY    35  30  82 N7        30.24S WCI  29
CLARKSVILLE    CLOUDY    34  29  82 N6        30.25F WCI  29
COOKEVILLE     CLEAR     28  28 100 CALM      30.19S
CROSSVILLE     PTCLDY    32  28  85 N3        30.16S FOG
$$

TNZ061-075-076-078-094-096-097-190900-
SOUTH MIDDLE TENNESSEE

CITY           SKY/WX    TMP DP  RH WIND       PRES   REMARKS
TULLAHOMA      CLEAR     27  25  93 CALM      30.19S
WINCHESTER     CLOUDY    27  27 100 CALM      30.19S VSB 1/4
$$

TNZ017-018-042-046-047-190900-
NORTHEAST TENNESSEE

CITY           SKY/WX    TMP DP  RH WIND       PRES   REMARKS
TRI CITIES     CLOUDY    39  28  64 W3        30.15R
ELIZABETHTON   CLOUDY    37  27  65 W6        30.14S WCI  33
$$

TNZ012-013-036-069-073-074-190900-
CENTRAL EAST TENNESSEE

CITY           SKY/WX    TMP DP  RH WIND       PRES   REMARKS
KNOXVILLE      CLEAR     34  26  72 NE3       30.17F
OAK RIDGE      CLEAR     33  29  85 CALM      30.20S
$$

TNZ083-085-099-190900-
SOUTHEAST TENNESSEE

CITY           SKY/WX    TMP DP  RH WIND       PRES   REMARKS
CHATTANOOGA    CLEAR     36  32  85 CALM      30.18F
$$

SKY/WX REPORTED AS FAIR MEANS FEW OR NO CLOUDS BELOW
12 THOUSAND FEET.



USA.gov is the U.S. government's official web portal to all federal, state and local government web resources and services.